Flag for Kazakhstan Weather past 2 weeks in Astana, Kazakhstan

Now
16 °F

Ice fog.


Feels Like: 16 °F
Forecast: 10 / 27 °F
Wind: No wind

Location: Astana

Current Time: Dec 23, 2014 at 5:44:44 AM

Latest Report: Dec 23, 2014 at 5:00 AM


Visibility: 0 mi

Pressure: 30.12 "Hg

Humidity: 93%

Dew point: 14 °F

Location of AstanaLocation

Historic Weather in Astana — Graph

°F

Astana temperature yesterday

Maximum temperature yesterday: 18 °F (at 2:30 PM)
Minimum temperature yesterday: 10 °F (at 11:00 PM)
Average temperature yesterday: 14 °F

Past Weeks' High & Low Weather Summary

 TemperatureHumidityPressure
High27 °F (Dec 21, 2:00 PM)100% (Dec 21, 5:00 PM)30.83 "Hg (Dec 21, 5:00 PM)
Low-11 °F (Dec 10, 7:30 AM)55% (Dec 10, 1:30 PM)30.09 "Hg (Dec 22, 4:30 AM)
Average7 °F82%30.50 "Hg
* Reported Dec 8 4:00 AM — Dec 23 4:30 AM, Astana, Weather by CustomWeather, © 2014

Note: Actual official high and low records may vary slightly from our data, if they occured in-between our weather recording intervals... More about our weather records

Advertising

Astana weather history for previous 24 hours

 ConditionsComfort  
Time TempWeatherWind HumidityBarometerVisibility
4:30 AM
Dec 23
16 °FIce fog.1 mph86%30.12 "Hg0 mi
3:30 AM14 °FIce fog.3 mph85%30.12 "Hg0 mi
3:00 AM12 °FIce fog.No wind85%30.12 "Hg0 mi
2:30 AM12 °FIce fog.1 mph92%30.12 "Hg0 mi
2:00 AM10 °FIce fog.3 mph92%30.12 "Hg0 mi
1:30 AM7 °FPassing clouds.6 mph92%30.12 "Hg1 mi
1:00 AM9 °FPassing clouds.3 mph85%30.12 "HgN/A
12:30 AM9 °FPassing clouds.6 mph92%30.12 "HgN/A
12:00 AM10 °FPassing clouds.1 mph85%30.15 "Hg4 mi
11:30 PM
Dec 22
10 °FPassing clouds.3 mph85%30.12 "HgN/A
11:00 PM10 °FPassing clouds.6 mph92%30.12 "HgN/A
10:30 PM12 °FPassing clouds.3 mph85%30.12 "HgN/A
10:00 PM14 °FPassing clouds.6 mph85%30.12 "HgN/A
9:30 PM16 °FPassing clouds.6 mph93%30.12 "HgN/A
9:00 PM12 °FPassing clouds.6 mph92%30.12 "HgN/A
8:30 PM12 °FPassing clouds.3 mph92%30.12 "HgN/A
8:00 PM14 °FClear.3 mph85%30.12 "Hg10 mi
7:30 PM14 °FClear.6 mph85%30.12 "Hg10 mi
7:00 PM12 °FClear.8 mph92%30.12 "Hg10 mi
6:30 PM14 °FClear.8 mph92%30.12 "Hg10 mi
6:00 PM16 °FSunny.6 mph86%30.12 "Hg10 mi
5:30 PM18 °FSunny.3 mph86%30.12 "Hg10 mi
5:00 PM16 °FSunny.6 mph86%30.12 "Hg10 mi
4:30 PM16 °FSunny.6 mph86%30.12 "Hg10 mi
4:00 PM16 °FSunny.No wind86%30.12 "Hg10 mi
3:30 PM16 °FSunny.6 mph86%30.12 "Hg10 mi
3:00 PM16 °FSunny.3 mph86%30.12 "Hg10 mi
2:30 PM18 °FSunny.3 mph86%30.09 "Hg10 mi
2:00 PM16 °FSunny.3 mph93%30.09 "Hg10 mi
1:30 PM16 °FSunny.3 mph86%30.12 "Hg10 mi
1:00 PM16 °FSunny.3 mph86%30.12 "Hg10 mi
12:30 PM16 °FSunny.3 mph86%30.12 "Hg10 mi
12:00 PM14 °FSunny.1 mph92%30.12 "Hg10 mi
11:30 AM12 °FSunny.3 mph92%30.12 "Hg10 mi
11:00 AM12 °FSunny.3 mph85%30.12 "Hg10 mi
10:30 AM12 °FSunny.1 mph85%30.12 "Hg10 mi
10:00 AM12 °FClear.1 mph85%30.09 "Hg10 mi
9:30 AM12 °FClear.3 mph92%30.09 "Hg10 mi
9:00 AM12 °FClear.3 mph92%30.09 "Hg10 mi
8:30 AM12 °FClear.1 mph92%30.09 "Hg10 mi
8:00 AM14 °FClear.3 mph85%30.09 "Hg10 mi
7:30 AM16 °FClear.3 mph86%30.09 "Hg10 mi
7:00 AM16 °FClear.3 mph93%30.09 "Hg10 mi
6:30 AM16 °FClear.1 mph93%30.09 "Hg10 mi
6:00 AM16 °FClear.3 mph93%30.09 "Hg10 mi
5:30 AM16 °FClear.3 mph86%30.09 "Hg10 mi
5:00 AM14 °FClear.1 mph92%30.09 "Hg10 mi
Weather by CustomWeather, © 2014

See weather overviewHow to use our weather pages